Regional Weather Roundup
Issued by NWS

Home | Current Version | Previous Version | Text Only | Print | Product List | Glossary On
Versions: 1 2 3 4 5 6 7 8 9 10 11 12 13 14 15 16 17 18 19 20 21 22 23 24 25 26 27 28 29 30 31 32 33 34 35 36 37 38 39 40 41 42 43 44 45 46 47 48 49 50
000
ASUS44 KJAN 020110
RWRMS

MISSISSIPPI HOURLY WEATHER ROUNDUP
NATIONAL WEATHER SERVICE JACKSON MS
800 PM CDT SUN MAY 01 2016

NOTE: "FAIR: INDICATES FEW OR NO CLOUDS BELOW 12,000 FEET WITH NO
SIGNIFICANT WEATHER AND/OR OBSTRUCTIONS TO VISIBILITY.

MSZ001>002-007>008-010>013-018>021-025>028-034>036-020200-
NORTHWEST MISSISSIPPI

CITY           SKY/WX    TMP DP  RH WIND       PRES   REMARKS
BATESVILLE     FAIR      75  66  75 CALM      29.94R
CLEVELAND      FAIR      77  73  87 SE7       29.90R
GREENWOOD      CLEAR     75  67  76 SE6       29.91S
GREENVILLE     PTCLDY    77  69  76 SE5       29.90R
OLIVE BRANCH   MOCLDY    73  73 100 CALM      29.93S
OXFORD         FAIR      73  66  78 S7        29.96R
TUNICA         CLEAR     72  66  83 N6        29.93R
WINONA         FAIR      73  69  88 SE3       29.93S
$$

MSZ003>006-009-014>017-022>024-029>033-037>039-020200-
NORTHEAST MISSISSIPPI

CITY           SKY/WX    TMP DP  RH WIND       PRES   REMARKS
COLUMBUS AFB   NOT AVBL
CORINTH        FAIR      73  66  78 S7        29.94R
GOLDN TRIANGLE CLOUDY    70  64  83 SE7       29.97R
STARKVILLE     FAIR      68  66  94 SE3       29.95F
TUPELO         PTCLDY    72  64  76 SE7       29.96R
$$

MSZ040-058-020200-
CENTRAL MISSISSIPPI

CITY           SKY/WX    TMP DP  RH WIND       PRES   REMARKS
JACKSON INTL   CLEAR     72  65  78 SE7       29.93R
JACKSON HAWKNS PTCLDY    73  65  75 SE8       29.92S
MADISON        FAIR      72  64  78 CALM      29.93R
MERIDIAN KEY   CLOUDY    72  69  90 CALM      29.96R
MERIDIAN NAS   CLOUDY    71  68  90 E8        29.97R
VICKSBURG TVR  CLOUDY    78  69  73 E13       29.89S
VICKSBURG VKS  PTCLDY    75  68  78 SE5       29.90S
$$

MSZ059>079-020200-
SOUTH MISSISSIPPI

CITY           SKY/WX    TMP DP  RH WIND       PRES   REMARKS
BROOKHAVEN     FAIR     N/A N/A N/A CALM      29.94R
COLUMBIA       FAIR      68  66  94 E3        29.96R
HATTIESBURG    CLOUDY    70  66  87 CALM      29.94S
MCCOMB         CLOUDY    69  67  93 CALM      29.92R
NATCHEZ        CLEAR     72  64  78 SE3       29.91R
PINE BELT      CLOUDY    68  64  88 CALM      29.95R
$$

MSZ080>082-020200-
COASTAL MISSISSIPPI

CITY           SKY/WX    TMP DP  RH WIND       PRES   REMARKS
BAY ST LOUIS   MOCLDY    75  57  53 MISG      29.88S
BILOXI         CLOUDY    77  63  61 NW10G41   29.89R
PASCAGOULA     CLOUDY    74  72  93 SE12      29.91S
GULFPORT       CLOUDY    77  60  55 NW16G23   29.88R
$$




USA.gov is the U.S. government's official web portal to all federal, state and local government web resources and services.